When you browse on this site, cookies collect data to enhance your experience and personalize the content and advertising you see.
Visit our Privacy Policy to learn more. By continuing to use the site, you agree to this use of cookies and data.
  • In Hungary
  • List of Countries
  • For 7 days
  • Water Temperature
  • Weather Map
  • News
  • Weather Widgets
  • user-avatar
    Login

    Hourly Weather Senago

    Today, 18 November, Monday

    Time Temperature Precipitation Wind Pressure Humidity
    00:00 +7°C° 0.5 mm 1 mps 740 mmHg 87%
    01:00 +7°C° 0.5 mm 1 mps 740 mmHg 88%
    02:00 +7°C° 0.2 mm 1 mps 740 mmHg 87%
    03:00 +7°C° 0.2 mm 1 mps 740 mmHg 87%
    04:00 +7°C° 0.2 mm 1 mps 741 mmHg 86%
    05:00 +7°C° 0 mm 1 mps 741 mmHg 86%
    06:00 +6°C° 0 mm 1 mps 742 mmHg 86%
    07:00 +6°C° 0 mm 1 mps 743 mmHg 86%
    08:00 +7°C° 0 mm 1 mps 743 mmHg 84%
    09:00 +7°C° 0 mm 1 mps 743 mmHg 82%
    10:00 +7°C° 0 mm 0 mps 744 mmHg 80%
    11:00 +8°C° 0.1 mm 0 mps 744 mmHg 78%
    12:00 +9°C° 0.1 mm 1 mps 744 mmHg 75%
    13:00 +10°C° 0.1 mm 1 mps 744 mmHg 73%
    14:00 +10°C° 0 mm 1 mps 744 mmHg 73%
    15:00 +10°C° 0 mm 1 mps 744 mmHg 73%
    16:00 +10°C° 0 mm 1 mps 745 mmHg 74%
    17:00 +9°C° 0.3 mm 1 mps 745 mmHg 76%
    18:00 +9°C° 0.3 mm 1 mps 745 mmHg 78%
    19:00 +9°C° 0.3 mm 1 mps 745 mmHg 81%
    20:00 +8°C° 1 mm 2 mps 745 mmHg 81%
    21:00 +8°C° 1 mm 2 mps 746 mmHg 81%
    22:00 +7°C° 1 mm 3 mps 746 mmHg 81%
    23:00 +7°C° 1 mm 3 mps 745 mmHg 81%

    Tomorrow, 19 November, Tuesday

    Time Temperature Precipitation Wind Pressure Humidity
    00:00 +7°C° 1 mm 3 mps 745 mmHg 82%
    01:00 +7°C° 1 mm 2 mps 745 mmHg 83%
    02:00 +7°C° 1 mm 3 mps 745 mmHg 83%
    03:00 +7°C° 1 mm 3 mps 744 mmHg 83%
    04:00 +7°C° 1 mm 3 mps 744 mmHg 84%
    05:00 +7°C° 2 mm 3 mps 744 mmHg 85%
    06:00 +7°C° 2 mm 2 mps 744 mmHg 86%
    07:00 +7°C° 2 mm 2 mps 744 mmHg 88%
    08:00 +8°C° 2.6 mm 2 mps 744 mmHg 88%
    09:00 +8°C° 2.6 mm 2 mps 745 mmHg 88%
    10:00 +8°C° 2.6 mm 2 mps 745 mmHg 88%
    11:00 +8°C° 1.7 mm 3 mps 744 mmHg 87%
    12:00 +8°C° 1.7 mm 3 mps 744 mmHg 87%
    13:00 +8°C° 1.7 mm 3 mps 744 mmHg 86%
    14:00 +8°C° 0.9 mm 2 mps 744 mmHg 86%
    15:00 +8°C° 0.9 mm 2 mps 745 mmHg 86%
    16:00 +8°C° 0.9 mm 2 mps 745 mmHg 86%
    17:00 +8°C° 0.6 mm 2 mps 745 mmHg 86%
    18:00 +8°C° 0.6 mm 2 mps 745 mmHg 87%
    19:00 +9°C° 0.6 mm 1 mps 746 mmHg 87%
    20:00 +10°C° 0.3 mm 1 mps 746 mmHg 87%
    21:00 +10°C° 0.3 mm 1 mps 746 mmHg 87%
    22:00 +10°C° 0.3 mm 1 mps 747 mmHg 87%
    23:00 +10°C° 0.2 mm 1 mps 747 mmHg 87%

    Day after tomorrow, 20 November, Wednesday

    Time Temperature Precipitation Wind Pressure Humidity
    00:00 +10°C° 0.2 mm 1 mps 747 mmHg 87%
    01:00 +10°C° 0.2 mm 1 mps 747 mmHg 88%
    02:00 +10°C° 0.2 mm 1 mps 747 mmHg 88%
    03:00 +10°C° 0.2 mm 1 mps 747 mmHg 88%
    04:00 +10°C° 0.2 mm 1 mps 746 mmHg 88%
    05:00 +10°C° 0.2 mm 1 mps 746 mmHg 87%
    06:00 +10°C° 0.2 mm 1 mps 747 mmHg 87%
    07:00 +10°C° 0.2 mm 1 mps 747 mmHg 87%
    08:00 +10°C° 0.1 mm 1 mps 747 mmHg 86%
    09:00 +10°C° 0.1 mm 1 mps 747 mmHg 85%
    10:00 +11°C° 0.1 mm 1 mps 747 mmHg 83%
    11:00 +11°C° 0.1 mm 1 mps 747 mmHg 81%
    12:00 +12°C° 0.1 mm 1 mps 746 mmHg 80%
    13:00 +12°C° 0.1 mm 1 mps 746 mmHg 78%
    14:00 +12°C° 0 mm 1 mps 746 mmHg 79%
    15:00 +12°C° 0 mm 1 mps 746 mmHg 79%
    16:00 +12°C° 0 mm 1 mps 745 mmHg 80%
    17:00 +11°C° 0 mm 1 mps 746 mmHg 82%
    18:00 +11°C° 0 mm 1 mps 746 mmHg 84%
    19:00 +10°C° 0 mm 1 mps 746 mmHg 86%
    20:00 +10°C° 0 mm 1 mps 746 mmHg 85%
    21:00 +10°C° 0 mm 1 mps 746 mmHg 85%
    22:00 +9°C° 0 mm 0 mps 746 mmHg 84%
    23:00 +9°C° 0.1 mm 0 mps 746 mmHg 84%

    21 November, Thursday

    Time Temperature Precipitation Wind Pressure Humidity
    00:00 +9°C° 0.1 mm 0 mps 746 mmHg 84%
    01:00 +9°C° 0.1 mm 0 mps 746 mmHg 84%
    02:00 +9°C° 0.1 mm 0 mps 745 mmHg 85%
    03:00 +9°C° 0.1 mm 0 mps 745 mmHg 87%
    04:00 +8°C° 0.1 mm 0 mps 745 mmHg 88%
    05:00 +8°C° 0 mm 0 mps 745 mmHg 88%
    06:00 +8°C° 0 mm 0 mps 745 mmHg 88%
    07:00 +8°C° 0 mm 0 mps 745 mmHg 88%
    08:00 +9°C° 0 mm 0 mps 745 mmHg 87%
    09:00 +9°C° 0 mm 0 mps 745 mmHg 86%
    10:00 +9°C° 0 mm 0 mps 745 mmHg 84%
    11:00 +10°C° 0.1 mm 0 mps 745 mmHg 80%
    12:00 +11°C° 0.1 mm 0 mps 745 mmHg 76%
    13:00 +12°C° 0.1 mm 0 mps 744 mmHg 72%
    14:00 +12°C° 0 mm 0 mps 744 mmHg 72%
    15:00 +11°C° 0 mm 0 mps 744 mmHg 72%
    16:00 +11°C° 0 mm 0 mps 744 mmHg 71%
    17:00 +11°C° 0 mm 0 mps 745 mmHg 73%
    18:00 +11°C° 0 mm 1 mps 745 mmHg 75%
    19:00 +11°C° 0 mm 1 mps 746 mmHg 77%
    20:00 +11°C° 0.1 mm 1 mps 746 mmHg 77%
    21:00 +11°C° 0.1 mm 1 mps 746 mmHg 78%
    22:00 +11°C° 0.1 mm 1 mps 746 mmHg 79%
    23:00 +11°C° 0.1 mm 1 mps 746 mmHg 78%

    22 November, Friday

    Time Temperature Precipitation Wind Pressure Humidity
    00:00 +10°C° 0.1 mm 1 mps 746 mmHg 78%
    01:00 +10°C° 0.1 mm 1 mps 746 mmHg 77%
    02:00 +10°C° 0.1 mm 1 mps 746 mmHg 78%
    03:00 +10°C° 0.1 mm 1 mps 746 mmHg 79%
    04:00 +10°C° 0.1 mm 1 mps 746 mmHg 80%
    05:00 +10°C° 0.3 mm 1 mps 746 mmHg 81%
    06:00 +10°C° 0.3 mm 1 mps 746 mmHg 81%
    07:00 +10°C° 0.3 mm 1 mps 746 mmHg 82%
    08:00 +10°C° 0.6 mm 1 mps 746 mmHg 83%
    09:00 +9°C° 0.6 mm 2 mps 746 mmHg 84%
    10:00 +9°C° 0.6 mm 2 mps 746 mmHg 86%
    11:00 +9°C° 0.6 mm 2 mps 746 mmHg 85%
    12:00 +9°C° 0.6 mm 2 mps 745 mmHg 84%
    13:00 +9°C° 0.6 mm 2 mps 745 mmHg 83%
    14:00 +10°C° 0.1 mm 2 mps 745 mmHg 81%
    15:00 +10°C° 0.1 mm 2 mps 745 mmHg 79%
    16:00 +10°C° 0.1 mm 2 mps 745 mmHg 78%
    17:00 +10°C° 0 mm 2 mps 745 mmHg 79%
    18:00 +10°C° 0 mm 2 mps 745 mmHg 80%
    19:00 +10°C° 0 mm 2 mps 745 mmHg 81%
    20:00 +10°C° 0.4 mm 2 mps 745 mmHg 82%
    21:00 +10°C° 0.4 mm 2 mps 745 mmHg 82%
    22:00 +9°C° 0.4 mm 2 mps 745 mmHg 83%
    23:00 +9°C° 1 mm 2 mps 745 mmHg 84%

    23 November, Saturday

    Time Temperature Precipitation Wind Pressure Humidity
    00:00 +9°C° 1 mm 2 mps 745 mmHg 85%
    01:00 +9°C° 1 mm 2 mps 745 mmHg 86%
    02:00 +9°C° 0.8 mm 2 mps 744 mmHg 86%
    03:00 +9°C° 0.8 mm 2 mps 744 mmHg 85%
    04:00 +10°C° 0.8 mm 2 mps 744 mmHg 85%
    05:00 +10°C° 0.3 mm 2 mps 744 mmHg 84%
    06:00 +10°C° 0.3 mm 2 mps 744 mmHg 84%
    07:00 +10°C° 0.3 mm 2 mps 744 mmHg 84%
    08:00 +10°C° 0.1 mm 2 mps 744 mmHg 83%
    09:00 +10°C° 0.1 mm 2 mps 745 mmHg 82%
    10:00 +12°C° 0.1 mm 2 mps 745 mmHg 81%
    11:00 +12°C° 0.4 mm 2 mps 745 mmHg 81%
    12:00 +12°C° 0.4 mm 2 mps 745 mmHg 81%
    13:00 +12°C° 0.4 mm 2 mps 745 mmHg 81%
    14:00 +12°C° 0 mm 2 mps 745 mmHg 81%
    15:00 +12°C° 0 mm 1 mps 745 mmHg 80%
    16:00 +12°C° 0 mm 1 mps 745 mmHg 79%
    17:00 +12°C° 0.1 mm 1 mps 746 mmHg 79%
    18:00 +12°C° 0.1 mm 1 mps 746 mmHg 78%
    19:00 +12°C° 0.1 mm 2 mps 747 mmHg 78%
    20:00 +12°C° 0.1 mm 2 mps 747 mmHg 78%
    21:00 +12°C° 0.1 mm 2 mps 748 mmHg 78%
    22:00 +12°C° 0.1 mm 2 mps 748 mmHg 78%
    23:00 +12°C° 0 mm 1 mps 748 mmHg 77%
    Show more